Location: Chervonnoye
(48.6000°N, 34.4000°E)
Time: 06:42:16
(UTC+00:00)

Cosmos 1867 - Pass Details

Date: 23 November 2020
Orbit: 776 x 800 km, 65.0° (Epoch: 18 January)

Event Time Altitude Azimuth Distance (km) Brightness Sun altitude
Rises 15:37:46 0° 192° (SSW) 3,263 7.1 -16.7°
Reaches altitude 10° 15:40:17 10° 185° (S) 2,343 6.2 -17.1°
Maximum altitude 15:45:17 40° 117° (ESE) 1,157 4.0 -17.9°
Enters shadow 15:46:52 32° 80° (E) 1,329 4.2 -18.1°
